Location: Unspecified
(0.0000°N, 0.0000°E)
Time: 13:28:04
(UTC+00:00)

Vanguard 3 - Pass Details

Date: 09 December 2025
Orbit: 507 x 3207 km, 33.3° (Epoch: 22 January)

Event Time Altitude Azimuth Distance (km) Brightness Sun altitude
Rises 04:07:47 0° 227° (SW) 6,096 11.4 -23.9°
Reaches altitude 10° 04:14:22 10° 207° (SSW) 5,558 11.4 -22.5°
Maximum altitude 04:24:07 17° 173° (S) 5,443 11.7 -20.2°
Drops below altitude 10° 04:34:45 10° 140° (SE) 6,127 12.6 -17.8°
Sets 04:42:44 0° 121° (ESE) 6,992 13.7 -16.0°
